Regional Weather Roundup
Issued by NWS

Home | Current Version | Previous Version | Text Only | Print | Product List | Glossary Off
Versions: 1 2 3 4 5 6 7 8 9 10 11 12 13 14 15 16 17 18 19 20 21 22 23 24 25 26 27 28 29 30 31 32 33 34 35 36 37 38 39 40 41 42 43 44 45 46 47 48 49 50

728
ASUS43 KIND 182259
RWRIN

WEATHER ROUNDUP FOR INDIANA
NATIONAL WEATHER SERVICE INDIANAPOLIS IN
700 PM EDT WED OCT 18 2017

NOTE: "FAIR" INDICATES FEW OR NO CLOUDS BELOW 12,000 FEET WITH NO
SIGNIFICANT WEATHER AND/OR OBSTRUCTIONS TO VISIBILITY.

* - STATION DOES NOT REPORT WEATHER SUCH AS PRECIPITATION OR FOG.

+ - STATION NOT QUALITY CONTROLLED BY THE NATIONAL WEATHER SERVICE.
    USE DATA WITH CAUTION...ESPECIALLY DEWPOINT AND RELATIVE
    HUMIDITY OBSERVATIONS.

INZ001>003-010>013-019-020-190000-
NORTHWEST INDIANA

CITY           SKY/WX    TMP DP  RH WIND       PRES   REMARKS
GARY /AIRPORT/ PTCLDY    68  34  28 S9        30.05S
MONTICELLO +   CLEAR     64  40  41 S7        30.11S
RENSSELAER +   CLEAR     64  32  29 S9        30.10S

$$

LMZ046-743>745-190000-
SOUTHERN LAKE MICHIGAN

STATION/POSITION TIME  TEMP    WIND        PRES    WAVE
                       AIR SEA DIR/SP/G            HT
                 (UTC) (F)     (DEG/KT/KT) (MB)    (FT)
BURNS HARBOR     2240   67     190/ 12/ 17 1017.9S
MICHIGAN CITY    2230   67     180/ 11/ 14   N/A
5NW MICH CITY    2250   64 58  200/ 12/ 16   N/A     2

$$

INZ004-005-014>016-021>024-190000-
NORTH CENTRAL INDIANA

CITY           SKY/WX    TMP DP  RH WIND       PRES   REMARKS
ELKHART        CLEAR     64  39  39 S7        30.08F
GOSHEN         CLEAR     63  40  42 S9        30.10F
PERU/GRISSOM   CLEAR     62  44  52 S7        30.12F
SOUTH BEND     CLEAR     62  40  44 S9        30.09S

$$

INZ006>009-017-018-025>027-190000-
NORTHEAST INDIANA

CITY           SKY/WX    TMP DP  RH WIND       PRES   REMARKS
FORT WAYNE     CLEAR     61  39  44 S9        30.14S
KENDALLVILLE + CLEAR     62  39  42 S9        30.12F

$$

INZ028-029-035-036-043>045-051>053-190000-
WEST CENTRAL INDIANA

CITY           SKY/WX    TMP DP  RH WIND       PRES   REMARKS
LAFAYETTE      CLEAR     64  43  46 S7        30.12S
TERRE HAUTE    CLEAR     63  45  51 S8        30.15S

$$

INZ030>032-037>040-046>048-054>057-064-065-190000-
CENTRAL INDIANA

CITY           SKY/WX    TMP DP  RH WIND       PRES   REMARKS
COLUMBUS       CLEAR     63  37  39 S9        30.19F
INDIANAPOLIS   PTCLDY    64  43  46 S13       30.16F
-EAGLE CREEK   CLEAR     65  43  44 S8        30.15F
KOKOMO +       CLEAR     62  44  51 S8        30.14F
MT COMFORT *+  CLEAR     63  48  59 S6        30.17S
SHELBYVILLE    CLEAR     65  41  41 S10       30.17S

$$

INZ033-034-041-042-049-050-058-059-190000-
EAST CENTRAL INDIANA

CITY           SKY/WX    TMP DP  RH WIND       PRES   REMARKS
MUNCIE         CLEAR     65  40  39 S6        30.16S
RICHMOND +     CLEAR     59  41  51 S8        30.20S

$$

INZ060-061-067>069-081>083-085>088-190000-
SOUTHWEST INDIANA

CITY           SKY/WX    TMP DP  RH WIND       PRES   REMARKS
EVANSVILLE     CLEAR     66  45  46 S6        30.18S
HUNTINGBURG +  CLEAR     65  46  50 S5        30.19F

$$

INZ062-063-066-070>080-084-089>092-190000-
SOUTH CENTRAL AND SOUTHEAST INDIANA

CITY           SKY/WX    TMP DP  RH WIND       PRES   REMARKS
BLOOMINGTON    CLEAR     62  44  51 S7        30.17F
MADISON *+     CLEAR     61  45  55 S5        30.22F
SEYMOUR +      CLEAR     64  45  48 S6        30.19F

$$





USA.gov is the U.S. government's official web portal to all federal, state and local government web resources and services.